Home > Weather > Santa Maria > Past weeks

Flag for Cabo Verde Weather for the Past 2 Weeks in Santa Maria, Cabo Verde

Now
82 °F

Broken clouds.


Feels Like: 83 °F
Forecast: 71 / 82 °F
Wind: 25 mph from East

Location: Sal

Current Time: Feb 9, 2016 at 1:31:15 PM

Latest Report: Feb 9, 2016 at 1:00 PM


Visibility: 6 mi

Pressure: 30.09 "Hg

Humidity: 48%

Dew point: 61 °F

Location of Santa MariaLocation

Historic Weather in Santa Maria — Graph

°F

Santa Maria Temperature Yesterday

Maximum temperature yesterday: 84 °F (at 12:00 PM)
Minimum temperature yesterday: 72 °F (at 3:00 AM)
Average temperature yesterday: 77 °F

High & Low Weather Summary for the Past Weeks

 TemperatureHumidityPressure
High84 °F (Feb 8, 12:00 PM)94% (Feb 5, 4:00 AM)30.12 "Hg (Feb 5, 4:00 AM)
Low68 °F (Feb 5, 4:00 AM)40% (Feb 1, 12:00 PM)29.92 "Hg (Feb 3, 4:00 PM)
Average75 °F69%30.04 "Hg
* Reported Jan 25 12:00 Noon — Feb 9 12:00 Noon, Santa Maria, Weather by CustomWeather, © 2016

Note: Actual official high and low records may vary slightly from our data, if they occured in-between our weather recording intervals... More about our weather records

Advertising

Santa Maria Weather History for the Previous 24 Hours

 ConditionsComfort  
Time TempWeatherWind HumidityBarometerVisibility
12:00 PM
Tue, Feb 9
82 °FBroken clouds.25 mph48%30.12 "Hg6 mi
11:00 AM82 °FBroken clouds.24 mph51%30.12 "Hg6 mi
10:00 AM81 °FBroken clouds.21 mph58%30.12 "Hg6 mi
9:00 AM79 °FBroken clouds.18 mph61%30.12 "Hg6 mi
8:00 AM73 °FBroken clouds.16 mph74%30.09 "Hg6 mi
7:00 AM73 °FPartly sunny.13 mph74%30.09 "Hg6 mi
6:00 AM73 °FPartly sunny.16 mph74%30.07 "Hg5 mi
5:00 AM73 °FBroken clouds.15 mph69%30.04 "Hg5 mi
4:00 AM73 °FPartly cloudy.15 mph74%30.04 "Hg5 mi
3:00 AM73 °FPartly cloudy.15 mph74%30.04 "Hg5 mi
2:00 AM73 °FPartly cloudy.16 mph74%30.07 "Hg5 mi
1:00 AM73 °FPartly cloudy.15 mph74%30.07 "Hg5 mi
12:00 AM73 °FPartly cloudy.14 mph74%30.07 "Hg5 mi
10:00 PM
Mon, Feb 8
73 °FPartly cloudy.14 mph74%30.09 "Hg5 mi
9:00 PM75 °FMostly cloudy.13 mph69%30.07 "Hg5 mi
8:00 PM75 °FMostly cloudy.14 mph69%30.04 "Hg5 mi
7:00 PM75 °FMostly cloudy.17 mph69%30.01 "Hg5 mi
6:00 PM77 °FPartly cloudy.18 mph65%30.01 "Hg5 mi
5:00 PM81 °FClear.21 mph54%30.01 "Hg5 mi
4:00 PM82 °FClear.21 mph55%30.01 "Hg5 mi
3:00 PM84 °FClear.21 mph51%30.01 "Hg5 mi
2:00 PM84 °FClear.21 mph48%30.01 "Hg4 mi
1:00 PM84 °FClear.22 mph51%30.04 "Hg4 mi
Weather by CustomWeather, © 2016

See weather overviewHow to use our weather pages